• In Netherlands
  • List of Countries
  • For 7 days
  • Water Temperature
  • Satellite Maps
  • Weather Map
  • Weather Widgets
  • user-avatar
    Login

    Hourly Weather Bremen

    Today, 18 February, Sunday

    Time Temperature Precipitation Wind Pressure Humidity
    00:00 0°C° 0 mm 1 mps 769 mmHg 90%
    01:00 0°C° 0 mm 1 mps 769 mmHg 90%
    02:00 0°C° 0 mm 1 mps 769 mmHg 91%
    03:00 0°C° 0 mm 1 mps 769 mmHg 91%
    04:00 -2°C° 0 mm 2 mps 769 mmHg 92%
    05:00 -2°C° 0 mm 2 mps 769 mmHg 92%
    06:00 -2°C° 0 mm 2 mps 769 mmHg 92%
    07:00 -2°C° 0 mm 2 mps 769 mmHg 92%
    08:00 -1°C° 0 mm 2 mps 769 mmHg 86%
    09:00 +1°C° 0 mm 2 mps 769 mmHg 81%
    10:00 +1°C° 0 mm 3 mps 770 mmHg 75%
    11:00 +2°C° 0 mm 3 mps 769 mmHg 69%
    12:00 +3°C° 0 mm 3 mps 769 mmHg 63%
    13:00 +4°C° 0 mm 3 mps 769 mmHg 57%
    14:00 +4°C° 0 mm 3 mps 769 mmHg 58%
    15:00 +4°C° 0 mm 3 mps 768 mmHg 59%
    16:00 +5°C° 0 mm 2 mps 768 mmHg 60%
    17:00 +4°C° 0 mm 2 mps 768 mmHg 65%
    18:00 +3°C° 0 mm 2 mps 768 mmHg 70%
    19:00 +1°C° 0 mm 2 mps 768 mmHg 75%
    20:00 +1°C° 0 mm 2 mps 768 mmHg 77%
    21:00 -1°C° 0 mm 2 mps 768 mmHg 78%
    22:00 -1°C° 0 mm 2 mps 768 mmHg 80%
    23:00 -1°C° 0 mm 2 mps 768 mmHg 80%

    Tomorrow, 19 February, Monday

    Time Temperature Precipitation Wind Pressure Humidity
    00:00 -1°C° 0 mm 2 mps 767 mmHg 80%
    01:00 -1°C° 0 mm 2 mps 767 mmHg 80%
    02:00 -1°C° 0 mm 2 mps 767 mmHg 80%
    03:00 -1°C° 0 mm 2 mps 766 mmHg 80%
    04:00 -1°C° 0 mm 2 mps 766 mmHg 79%
    05:00 -1°C° 0 mm 2 mps 766 mmHg 80%
    06:00 -1°C° 0 mm 2 mps 766 mmHg 80%
    07:00 -1°C° 0 mm 2 mps 766 mmHg 80%
    08:00 +1°C° 0 mm 2 mps 765 mmHg 77%
    09:00 +2°C° 0 mm 2 mps 765 mmHg 73%
    10:00 +2°C° 0 mm 2 mps 765 mmHg 70%
    11:00 +4°C° 0 mm 2 mps 765 mmHg 66%
    12:00 +5°C° 0 mm 2 mps 765 mmHg 63%
    13:00 +6°C° 0 mm 2 mps 764 mmHg 60%
    14:00 +6°C° 0 mm 2 mps 764 mmHg 63%
    15:00 +6°C° 0 mm 2 mps 764 mmHg 66%
    16:00 +5°C° 0 mm 2 mps 764 mmHg 69%
    17:00 +5°C° 0.1 mm 1 mps 763 mmHg 73%
    18:00 +5°C° 0.1 mm 1 mps 763 mmHg 77%
    19:00 +4°C° 0.1 mm 1 mps 763 mmHg 81%
    20:00 +3°C° 0.2 mm 1 mps 763 mmHg 82%
    21:00 +2°C° 0.2 mm 2 mps 763 mmHg 83%
    22:00 +2°C° 0.2 mm 2 mps 763 mmHg 84%
    23:00 +2°C° 0.7 mm 2 mps 763 mmHg 85%

    Day after tomorrow, 20 February, Tuesday

    Time Temperature Precipitation Wind Pressure Humidity
    00:00 +2°C° 0.7 mm 2 mps 762 mmHg 86%
    01:00 +2°C° 0.7 mm 2 mps 762 mmHg 87%
    02:00 +2°C° 0.6 mm 2 mps 762 mmHg 88%
    03:00 +2°C° 0.6 mm 2 mps 762 mmHg 88%
    04:00 +1°C° 0.6 mm 2 mps 762 mmHg 89%
    05:00 +1°C° 0.3 mm 2 mps 762 mmHg 89%
    06:00 +1°C° 0.3 mm 2 mps 762 mmHg 90%
    07:00 +1°C° 0.3 mm 2 mps 762 mmHg 90%
    08:00 +1°C° 0.1 mm 2 mps 762 mmHg 90%
    09:00 +1°C° 0.1 mm 2 mps 763 mmHg 89%
    10:00 +2°C° 0.1 mm 2 mps 763 mmHg 89%
    11:00 +2°C° 0 mm 2 mps 763 mmHg 86%
    12:00 +3°C° 0 mm 2 mps 764 mmHg 84%
    13:00 +4°C° 0 mm 2 mps 764 mmHg 81%
    14:00 +4°C° 0 mm 2 mps 764 mmHg 81%
    15:00 +4°C° 0 mm 2 mps 764 mmHg 80%
    16:00 +4°C° 0 mm 2 mps 764 mmHg 80%
    17:00 +2°C° 0 mm 3 mps 765 mmHg 82%
    18:00 +1°C° 0 mm 3 mps 765 mmHg 85%
    19:00 -1°C° 0 mm 3 mps 766 mmHg 87%
    20:00 -1°C° 0 mm 3 mps 766 mmHg 88%
    21:00 -1°C° 0 mm 3 mps 766 mmHg 88%
    22:00 -2°C° 0 mm 2 mps 767 mmHg 89%
    23:00 -2°C° 0 mm 2 mps 767 mmHg 89%

    21 February, Wednesday

    Time Temperature Precipitation Wind Pressure Humidity
    00:00 -2°C° 0 mm 2 mps 767 mmHg 89%
    01:00 -3°C° 0 mm 2 mps 768 mmHg 89%
    02:00 -3°C° 0 mm 2 mps 768 mmHg 89%
    03:00 -3°C° 0 mm 2 mps 768 mmHg 90%
    04:00 -3°C° 0 mm 2 mps 768 mmHg 90%
    05:00 -3°C° 0 mm 2 mps 768 mmHg 90%
    06:00 -3°C° 0 mm 2 mps 768 mmHg 90%
    07:00 -4°C° 0 mm 2 mps 768 mmHg 90%
    08:00 -3°C° 0 mm 2 mps 768 mmHg 87%
    09:00 0°C° 0 mm 1 mps 768 mmHg 84%
    10:00 +1°C° 0 mm 1 mps 768 mmHg 81%
    11:00 +1°C° 0 mm 2 mps 768 mmHg 77%
    12:00 +2°C° 0 mm 2 mps 768 mmHg 73%
    13:00 +3°C° 0 mm 2 mps 767 mmHg 70%
    14:00 +3°C° 0 mm 2 mps 767 mmHg 70%
    15:00 +3°C° 0 mm 2 mps 767 mmHg 70%
    16:00 +3°C° 0 mm 2 mps 767 mmHg 70%
    17:00 +2°C° 0 mm 2 mps 767 mmHg 75%
    18:00 +1°C° 0 mm 2 mps 767 mmHg 79%
    19:00 -2°C° 0 mm 2 mps 767 mmHg 84%
    20:00 -2°C° 0 mm 2 mps 767 mmHg 84%
    21:00 -2°C° 0 mm 2 mps 767 mmHg 84%
    22:00 -1°C° 0 mm 1 mps 767 mmHg 84%
    23:00 -1°C° 0 mm 1 mps 767 mmHg 84%

    22 February, Thursday

    Time Temperature Precipitation Wind Pressure Humidity
    00:00 -1°C° 0 mm 1 mps 767 mmHg 84%
    01:00 -1°C° 0 mm 1 mps 767 mmHg 83%
    02:00 -1°C° 0 mm 1 mps 767 mmHg 83%
    03:00 -1°C° 0 mm 1 mps 767 mmHg 83%
    04:00 -1°C° 0 mm 1 mps 766 mmHg 82%
    05:00 -1°C° 0 mm 1 mps 766 mmHg 82%
    06:00 -3°C° 0 mm 2 mps 766 mmHg 81%
    07:00 -3°C° 0 mm 2 mps 767 mmHg 81%
    08:00 -2°C° 0 mm 2 mps 767 mmHg 76%
    09:00 -2°C° 0 mm 2 mps 767 mmHg 72%
    10:00 -1°C° 0 mm 3 mps 767 mmHg 68%
    11:00 0°C° 0 mm 3 mps 766 mmHg 66%
    12:00 +1°C° 0 mm 3 mps 766 mmHg 64%
    13:00 0°C° 0 mm 4 mps 766 mmHg 62%
    14:00 0°C° 0 mm 4 mps 766 mmHg 64%
    15:00 0°C° 0 mm 4 mps 765 mmHg 65%
    16:00 0°C° 0 mm 4 mps 765 mmHg 66%
    17:00 -1°C° 0 mm 4 mps 765 mmHg 72%
    18:00 -2°C° 0 mm 4 mps 765 mmHg 77%
    19:00 -3°C° 0 mm 4 mps 765 mmHg 82%
    20:00 -2°C° 0 mm 3 mps 765 mmHg 83%
    21:00 -4°C° 0 mm 3 mps 765 mmHg 85%
    22:00 -4°C° 0 mm 3 mps 766 mmHg 86%
    23:00 -4°C° 0 mm 3 mps 766 mmHg 87%

    23 February, Friday

    Time Temperature Precipitation Wind Pressure Humidity
    00:00 -4°C° 0 mm 3 mps 765 mmHg 88%
    01:00 -4°C° 0 mm 3 mps 765 mmHg 88%
    02:00 -4°C° 0 mm 3 mps 765 mmHg 88%
    03:00 -4°C° 0 mm 3 mps 765 mmHg 87%
    04:00 -4°C° 0 mm 3 mps 765 mmHg 86%
    05:00 -4°C° 0 mm 4 mps 765 mmHg 86%
    06:00 -4°C° 0 mm 4 mps 765 mmHg 85%
    07:00 -4°C° 0 mm 4 mps 766 mmHg 84%
    08:00 -5°C° 0 mm 5 mps 766 mmHg 80%
    09:00 -4°C° 0 mm 5 mps 766 mmHg 76%
    10:00 -4°C° 0 mm 6 mps 767 mmHg 71%
    11:00 -4°C° 0 mm 5 mps 767 mmHg 66%
    12:00 -4°C° 0 mm 5 mps 767 mmHg 61%
    13:00 -2°C° 0 mm 5 mps 767 mmHg 56%
    14:00 -2°C° 0 mm 5 mps 767 mmHg 52%
    15:00 -4°C° 0 mm 5 mps 767 mmHg 49%
    16:00 -4°C° 0 mm 5 mps 767 mmHg 46%
    17:00 -4°C° 0 mm 4 mps 767 mmHg 50%
    18:00 -5°C° 0 mm 4 mps 768 mmHg 54%
    19:00 -6°C° 0 mm 3 mps 768 mmHg 59%
    20:00 -6°C° 0 mm 3 mps 768 mmHg 61%
    21:00 -6°C° 0 mm 3 mps 768 mmHg 64%
    22:00 -6°C° 0 mm 3 mps 769 mmHg 67%
    23:00 -6°C° 0 mm 3 mps 769 mmHg 68%
    Show more